GW4343 Weather Reports


time (UTC)temp
F
wind
direction
speed
knots
gust
knots
rain 1hr
in
rain 24hr
in
rain mn
in
humidity
%
barometer
mb
20260901104527 50 22 0.9 1.7 0.00 0.23 0.06 97 1026.7
20260901104006 50 20 0.0 1.7 0.00 0.23 0.06 97 1026.6
20260901103518 50 20 0.9 1.7 0.00 0.23 0.06 97 1026.6
20260901103035 50 335 0.0 1.7 0.00 0.23 0.06 97 1026.7
20260901102515 50 16 0.0 1.7 0.00 0.23 0.06 97 1026.7
20260901102016 50 23 0.9 1.7 0.00 0.23 0.06 97 1026.7
20260901101517 50 38 0.0 0.0 0.00 0.23 0.06 97 1026.6
20260901101013 50 38 0.0 0.0 0.00 0.23 0.06 97 1026.6
20260901100510 50 38 0.0 0.0 0.00 0.23 0.06 97 1026.5
20260901100013 50 38 0.0 0.0 0.00 0.23 0.06 97 1026.6
20260901095514 50 38 0.0 0.0 0.00 0.23 0.06 97 1026.6
20260901095009 50 38 0.0 0.9 0.00 0.23 0.06 97 1026.6
20260901094534 50 39 0.0 0.9 0.00 0.23 0.06 97 1026.6
20260901094013 50 39 0.0 1.7 0.00 0.23 0.06 97 1026.6
20260901093514 50 39 0.0 1.7 0.00 0.23 0.06 97 1026.6
20260901093032 49 90 0.0 0.9 0.00 0.23 0.06 97 1026.7
20260901092513 49 144 0.0 0.0 0.00 0.23 0.06 97 1026.7
20260901092012 49 144 0.0 0.0 0.00 0.23 0.06 97 1026.7
20260901091527 49 145 0.0 0.0 0.00 0.23 0.06 97 1026.8
20260901091009 49 145 0.0 0.0 0.00 0.23 0.06 97 1026.8
20260901090516 49 145 0.0 0.0 0.00 0.23 0.06 96 1026.7
20260901090028 49 145 0.0 0.0 0.00 0.23 0.06 96 1026.7
20260901085507 49 145 0.0 0.0 0.00 0.23 0.06 96 1026.7
20260901085015 49 145 0.0 0.0 0.00 0.23 0.06 96 1026.8
20260901084527 49 145 0.0 0.0 0.00 0.23 0.06 96 1026.8
20260901084013 49 145 0.0 0.0 0.00 0.23 0.06 96 1026.8
20260901083515 49 145 0.0 0.0 0.00 0.23 0.06 96 1026.9
20260901083020 49 145 0.0 0.0 0.00 0.23 0.06 96 1026.9
20260901082515 49 145 0.0 0.0 0.00 0.23 0.06 96 1026.9
20260901082013 49 145 0.0 0.0 0.00 0.23 0.06 96 1026.9
20260901081530 49 145 0.0 0.0 0.00 0.23 0.06 96 1027.1
20260901081018 49 145 0.0 0.0 0.00 0.23 0.06 96 1027.1
20260901080512 49 145 0.0 0.0 0.00 0.23 0.06 96 1027.1
20260901080031 49 145 0.0 0.0 0.00 0.23 0.06 96 1027.1
20260901075515 49 145 0.0 0.0 0.00 0.23 0.06 96 1027.1
20260901075012 49 145 0.0 0.0 0.00 0.23 0.06 96 1027.3
20260901074534 49 145 0.0 0.0 0.00 0.23 0.06 96 1027.4
20260901074014 49 145 0.0 0.0 0.00 0.23 0.06 96 1027.5
20260901073517 49 145 0.0 0.0 0.00 0.23 0.06 96 1027.4
20260901073035 49 145 0.0 0.0 0.00 0.23 0.06 96 1027.5
20260901072513 49 146 0.0 0.0 0.01 0.23 0.06 95 1027.5
20260901072015 49 144 0.0 0.0 0.01 0.23 0.06 96 1027.6
20260901071527 49 144 0.0 0.0 0.02 0.23 0.06 96 1027.7
20260901071009 49 212 0.0 0.0 0.02 0.23 0.06 96 1027.6
20260901070503 49 212 0.0 0.0 0.05 0.23 0.06 96 1027.7
20260901070010 49 212 0.0 0.0 0.06 0.23 0.06 96 1027.7
20260901065508 49 214 0.0 0.0 0.07 0.23 0.06 95 1027.8
20260901065003 49 214 0.0 0.0 0.10 0.23 0.06 95 1027.8
20260901064527 50 214 0.0 0.0 0.11 0.23 0.06 95 1027.9
20260901064003 50 214 0.0 0.0 0.11 0.23 0.06 95 1027.9
20260901063504 50 214 0.0 0.0 0.11 0.23 0.06 95 1028.0
20260901063026 50 214 0.0 0.0 0.11 0.23 0.06 95 1028.1
20260901062504 50 214 0.0 0.0 0.10 0.22 0.05 95 1028.0
20260901062013 50 214 0.0 0.9 0.10 0.22 0.05 95 1028.1
20260901061520 50 214 0.0 0.9 0.09 0.21 0.04 95 1028.0
20260901061003 50 214 0.0 0.9 0.10 0.21 0.04 95 1027.9
20260901060510 50 218 0.0 0.9 0.07 0.18 0.01 95 1028.0
20260901060017 50 197 0.0 0.9 0.07 0.17 0.00 95 1028.0
20260901055503 50 225 0.0 0.9 0.07 0.16 0.16 95 1027.9
20260901055014 50 207 0.0 0.9 0.04 0.13 0.13 95 1028.1
20260901054514 50 207 0.0 0.0 0.03 0.12 0.12 95 1028.1
20260901054014 50 207 0.0 0.0 0.03 0.12 0.12 95 1028.0
20260901053508 50 207 0.0 0.0 0.03 0.12 0.12 95 1028.1
20260901053005 50 207 0.0 0.0 0.03 0.12 0.12 95 1028.1
20260901052511 50 207 0.0 0.0 0.03 0.12 0.12 95 1028.0
20260901052004 50 207 0.0 0.0 0.03 0.12 0.12 95 1028.1
20260901051526 50 207 0.0 0.0 0.03 0.12 0.12 95 1028.1
20260901051011 50 207 0.0 0.0 0.02 0.11 0.11 95 1028.2
20260901050505 51 207 0.0 0.0 0.02 0.11 0.11 95 1028.1
20260901050028 51 207 0.0 0.0 0.01 0.10 0.10 95 1028.2
20260901045508 51 207 0.0 0.0 0.00 0.09 0.09 95 1028.2
20260901045004 51 207 0.0 0.0 0.00 0.09 0.09 95 1028.2
20260901044525 51 207 0.0 0.9 0.00 0.09 0.09 95 1028.2
20260901044004 51 207 0.0 0.9 0.00 0.09 0.09 95 1028.3
20260901043513 51 207 0.0 0.9 0.01 0.09 0.09 95 1028.3
20260901043019 51 207 0.0 0.9 0.01 0.09 0.09 95 1028.4
20260901042504 51 207 0.0 0.9 0.01 0.09 0.09 95 1028.4
20260901042012 51 205 0.9 0.9 0.01 0.09 0.09 95 1028.4
20260901041515 51 151 0.0 0.9 0.02 0.09 0.09 95 1028.3
20260901041014 51 198 0.0 0.0 0.02 0.09 0.09 95 1028.4
20260901040511 51 198 0.0 0.0 0.02 0.09 0.09 95 1028.5
20260901040012 51 198 0.0 0.0 0.02 0.09 0.09 95 1028.4
20260901035513 51 198 0.0 0.0 0.02 0.09 0.09 95 1028.5
20260901035008 51 198 0.0 0.0 0.02 0.09 0.09 95 1028.6
20260901034521 52 198 0.0 0.0 0.03 0.09 0.09 95 1028.8
20260901034009 52 198 0.0 0.0 0.03 0.09 0.09 95 1028.7
20260901033505 52 198 0.0 0.0 0.02 0.08 0.08 95 1028.7
20260901033033 52 199 0.0 0.0 0.02 0.08 0.08 95 1028.7
20260901032512 52 199 0.0 0.0 0.02 0.08 0.08 95 1028.7
20260901032004 52 199 0.0 0.0 0.02 0.08 0.08 94 1028.6
20260901031533 52 198 0.0 0.0 0.01 0.07 0.07 94 1028.7
20260901031009 52 198 0.0 0.0 0.01 0.07 0.07 94 1028.7
20260901030505 52 198 0.0 0.0 0.01 0.07 0.07 94 1028.6
20260901030030 52 198 0.0 0.0 0.01 0.07 0.07 94 1028.7
20260901025505 52 198 0.0 0.0 0.01 0.07 0.07 94 1028.7
20260901025016 52 198 0.0 0.0 0.01 0.07 0.07 94 1028.6
20260901024525 52 198 0.0 0.0 0.00 0.06 0.06 93 1028.6
20260901024006 52 199 0.0 1.7 0.00 0.06 0.06 93 1028.5
20260901023511 52 198 0.0 1.7 0.00 0.06 0.06 93 1028.5
20260901023032 52 221 0.9 1.7 0.00 0.06 0.06 93 1028.5
20260901022515 52 226 0.0 1.7 0.00 0.06 0.06 93 1028.4
20260901022013 52 201 0.0 1.7 0.00 0.06 0.06 93 1028.2
20260901021520 52 167 0.9 0.9 0.00 0.06 0.06 93 1028.2
20260901021017 52 118 0.0 0.9 0.00 0.06 0.06 92 1028.2
20260901020509 52 118 0.0 0.9 0.00 0.06 0.06 92 1028.2
20260901020012 52 118 0.0 0.9 0.01 0.06 0.06 92 1028.3
20260901015517 52 109 0.0 0.9 0.01 0.06 0.06 92 1028.3
20260901015007 52 144 0.9 1.7 0.02 0.06 0.06 92 1028.3
20260901014536 52 221 0.9 1.7 0.02 0.06 0.06 92 1028.2
20260901014012 53 134 0.0 0.0 0.03 0.06 0.06 92 1028.3
20260901013504 53 134 0.0 0.0 0.04 0.06 0.06 92 1028.2
20260901013031 53 133 0.0 0.0 0.05 0.06 0.06 91 1028.1
20260901012510 53 133 0.0 0.9 0.05 0.06 0.06 91 1028.0
20260901012018 53 133 0.0 2.6 0.05 0.06 0.06 90 1028.0
20260901011529 53 145 0.9 5.2 0.05 0.06 0.06 89 1027.9
20260901011009 54 127 0.9 5.2 0.05 0.06 0.06 88 1027.9
20260901010517 54 23 0.9 5.2 0.05 0.06 0.06 84 1027.9
20260901010026 54 203 2.6 5.2 0.04 0.05 0.05 83 1027.9
20260901005506 54 196 2.6 5.2 0.04 0.05 0.05 84 1028.0
20260901005018 55 197 0.9 3.5 0.03 0.04 0.04 82 1028.1
20260901004526 56 232 0.9 3.5 0.03 0.04 0.04 81 1028.2
20260901004018 57 111 0.9 3.5 0.02 0.03 0.03 80 1028.2
20260901003513 58 117 0.9 4.3 0.01 0.02 0.02 77 1028.4
20260901003016 58 217 0.9 7.8 0.00 0.01 0.01 75 1028.3
20260901002517 59 113 1.7 7.8 0.00 0.01 0.01 71 1028.2
20260901002013 60 153 1.7 5.2 0.00 0.01 0.01 70 1027.8
20260901001514 60 147 1.7 5.2 0.00 0.01 0.01 67 1027.6
20260901001018 60 122 0.0 2.6 0.00 0.01 0.01 66 1027.7
20260901000509 61 293 0.0 2.6 0.00 0.01 0.01 68 1027.9
20260901000032 61 333 0.9 2.6 0.00 0.01 0.01 64 1027.6
20260831235515 61 341 0.0 1.7 0.00 0.01 0.01 62 1027.8
20260831235009 61 127 0.0 0.9 0.00 0.01 0.01 64 1027.7
20260831234531 61 218 0.0 3.5 0.00 0.01 0.01 63 1027.6
20260831234003 62 205 0.9 3.5 0.00 0.01 0.01 62 1027.6
20260831233508 62 178 0.9 2.6 0.00 0.01 0.01 65 1027.4
20260831233003 62 253 0.0 1.7 0.00 0.01 0.01 68 1027.3
20260831232511 63 253 0.0 1.7 0.00 0.01 0.01 64 1027.3
20260831232008 63 252 0.9 1.7 0.00 0.01 0.01 61 1027.4
20260831231504 64 209 0.0 0.9 0.00 0.01 0.01 62 1027.4
20260831231008 64 210 0.0 0.9 0.00 0.01 0.01 61 1027.4
20260831230505 64 210 0.0 1.7 0.00 0.01 0.01 57 1027.3
20260831230004 65 257 0.9 2.6 0.00 0.01 0.01 55 1027.4
20260831225505 65 215 0.9 3.5 0.00 0.01 0.01 56 1027.4
20260831225004 65 208 0.0 6.1 0.00 0.01 0.01 56 1027.3
20260831224523 65 286 1.7 7.8 0.00 0.01 0.01 54 1027.4
20260831224004 66 270 4.3 7.8 0.00 0.01 0.01 53 1027.2
20260831223503 66 286 2.6 7.0 0.00 0.01 0.01 51 1027.2
20260831223019 67 282 1.7 5.2 0.00 0.01 0.01 51 1027.2
20260831222506 67 253 1.7 5.2 0.00 0.01 0.01 49 1027.2
20260831222014 67 222 1.7 5.2 0.00 0.01 0.01 49 1027.1
20260831221516 67 269 1.7 7.8 0.00 0.01 0.01 50 1027.2
20260831221003 67 283 3.5 7.8 0.00 0.01 0.01 49 1027.1
20260831220511 68 306 4.3 7.0 0.00 0.01 0.01 48 1027.2
20260831220013 68 293 2.6 5.2 0.00 0.01 0.01 47 1027.1
20260831215503 68 278 3.5 7.0 0.00 0.01 0.01 47 1027.1
20260831215014 67 231 2.6 7.0 0.00 0.01 0.01 49 1027.3
20260831214508 68 273 4.3 7.0 0.00 0.01 0.01 47 1027.4
20260831214011 68 278 1.7 6.1 0.00 0.01 0.01 50 1027.4
20260831213508 67 286 2.6 7.8 0.00 0.01 0.01 51 1027.5
20260831213005 67 230 4.3 7.8 0.00 0.01 0.01 48 1027.5
20260831212512 67 280 1.7 6.1 0.00 0.01 0.01 50 1027.7
20260831212004 67 188 2.6 6.1 0.00 0.01 0.01 51 1027.8
20260831211530 67 282 3.5 8.7 0.00 0.01 0.01 51 1027.8
20260831211008 67 290 2.6 8.7 0.00 0.01 0.01 50 1027.8
20260831210504 67 282 4.3 6.1 0.00 0.01 0.01 48 1027.8
20260831210028 67 245 3.5 9.6 0.00 0.01 0.01 51 1027.9
20260831205508 67 211 5.2 9.6 0.00 0.01 0.01 50 1028.0
20260831205004 67 278 3.5 7.8 0.00 0.01 0.01 51 1028.0
20260831204520 67 278 4.3 8.7 0.00 0.01 0.01 52 1028.1
20260831204003 67 214 2.6 8.7 0.00 0.01 0.01 51 1028.2
20260831203514 66 289 3.5 8.7 0.00 0.01 0.01 52 1028.3
20260831203019 66 225 3.5 8.7 0.00 0.01 0.01 52 1028.3
20260831202503 67 328 4.3 7.8 0.00 0.01 0.01 50 1028.4
20260831202015 67 294 3.5 7.8 0.00 0.01 0.01 53 1028.6
20260831201516 67 270 3.5 7.8 0.00 0.01 0.01 53 1028.7
20260831201004 66 284 4.3 7.8 0.00 0.01 0.01 52 1028.7
20260831200509 66 286 3.5 7.8 0.00 0.01 0.01 52 1028.8
20260831200023 67 280 4.3 6.1 0.00 0.01 0.01 53 1028.9
20260831195516 67 290 3.5 6.1 0.00 0.01 0.01 52 1029.0
20260831195011 66 217 2.6 5.2 0.00 0.01 0.01 53 1029.1
20260831194510 66 292 2.6 4.3 0.00 0.01 0.01 53 1029.1
20260831194012 65 1 0.9 7.0 0.00 0.02 0.01 57 1029.1
20260831193510 65 28 2.6 7.0 0.00 0.02 0.01 56 1029.1
20260831193037 65 14 1.7 7.8 0.00 0.03 0.01 60 1029.1
20260831192509 64 184 3.5 7.8 0.00 0.03 0.01 60 1029.1
20260831192008 64 37 1.7 6.1 0.00 0.04 0.01 58 1029.1
20260831191533 64 273 0.9 5.2 0.00 0.04 0.01 59 1029.1
20260831191007 64 3 2.6 5.2 0.00 0.04 0.01 61 1029.2
20260831190503 64 34 1.7 4.3 0.00 0.04 0.01 60 1029.3
20260831190026 63 167 0.9 6.1 0.00 0.04 0.01 61 1029.4
20260831185509 63 196 2.6 7.8 0.00 0.05 0.01 60 1029.4
20260831185017 63 137 2.6 7.8 0.00 0.05 0.01 62 1029.4
20260831184525 63 138 1.7 7.0 0.00 0.05 0.01 62 1029.5
20260831184004 62 121 1.7 7.0 0.00 0.05 0.01 64 1029.5
20260831183516 62 217 2.6 7.8 0.00 0.05 0.01 62 1029.6
20260831183019 62 131 2.6 7.8 0.00 0.05 0.01 61 1029.8
20260831182515 62 247 0.0 5.2 0.00 0.05 0.01 63 1029.8
20260831182014 62 227 0.9 5.2 0.00 0.05 0.01 63 1029.8
20260831181519 61 186 0.9 5.2 0.00 0.05 0.01 64 1029.8
20260831181015 61 125 1.7 5.2 0.00 0.05 0.01 63 1029.8
20260831180514 61 220 0.9 7.0 0.00 0.05 0.01 64 1029.9
20260831180024 61 218 2.6 7.0 0.00 0.06 0.01 64 1029.8
20260831175512 61 191 3.5 6.1 0.00 0.06 0.01 63 1029.9
20260831175010 61 48 0.9 3.5 0.00 0.06 0.01 66 1029.8
20260831174532 60 79 0.9 3.5 0.00 0.06 0.01 66 1029.8
20260831174012 60 262 0.9 4.3 0.00 0.06 0.01 65 1029.8
20260831173508 60 205 1.7 4.3 0.00 0.06 0.01 66 1029.8
20260831173030 59 37 2.6 5.2 0.00 0.06 0.01 66 1030.0
20260831172511 59 131 2.6 5.2 0.00 0.06 0.01 65 1030.0
20260831172008 59 35 1.7 3.5 0.00 0.06 0.01 67 1029.9
20260831171528 59 143 0.9 3.5 0.00 0.06 0.01 64 1029.9
20260831171009 59 232 0.0 2.6 0.00 0.06 0.01 66 1029.9
20260831170516 59 279 0.9 4.3 0.00 0.06 0.01 65 1030.0
20260831170028 59 59 0.9 4.3 0.00 0.06 0.01 65 1029.8
20260831165507 59 108 0.0 3.5 0.00 0.06 0.01 67 1029.8
20260831165014 59 273 0.9 3.5 0.00 0.06 0.01 66 1029.6
20260831164538 58 232 1.7 6.1 0.00 0.06 0.01 66 1029.8
20260831164018 58 54 0.9 6.1 0.00 0.06 0.01 66 1029.8
20260831163515 58 132 1.7 6.1 0.00 0.06 0.01 65 1029.7
20260831163023 58 139 0.0 3.5 0.00 0.07 0.01 66 1029.7
20260831162515 58 214 1.7 3.5 0.00 0.08 0.01 64 1029.6
20260831162014 58 75 0.0 4.3 0.00 0.08 0.01 67 1029.6
20260831161515 57 37 0.0 4.3 0.00 0.08 0.01 69 1029.6
20260831161013 57 325 0.9 3.5 0.00 0.08 0.01 69 1029.6
20260831160510 56 342 0.9 5.2 0.00 0.08 0.01 72 1029.6
20260831160031 55 322 2.6 5.2 0.00 0.08 0.01 73 1029.5
20260831155514 55 202 0.9 3.5 0.00 0.08 0.01 75 1029.6
20260831155010 54 9 1.7 3.5 0.00 0.08 0.01 80 1029.6
20260831154603 53 44 1.7 2.6 0.00 0.08 0.01 80 1029.5
20260831154015 53 55 0.0 0.9 0.00 0.08 0.01 81 1029.5
20260831153520 52 55 0.9 0.9 0.00 0.08 0.01 81 1029.5
20260831153031 52 72 0.0 0.9 0.00 0.08 0.01 82 1029.4
20260831152515 51 79 0.0 0.9 0.00 0.08 0.01 85 1029.4
20260831152018 50 34 0.0 0.9 0.00 0.08 0.01 85 1029.4
20260831151530 49 34 0.0 1.7 0.00 0.08 0.01 86 1029.6
20260831151007 49 29 0.0 1.7 0.00 0.08 0.01 88 1029.6
20260831150517 48 38 0.9 3.5 0.00 0.08 0.01 88 1029.8
20260831150025 48 357 0.9 3.5 0.00 0.08 0.01 90 1029.6
20260831145519 48 344 0.9 2.6 0.00 0.08 0.01 93 1029.5
20260831145014 47 347 0.0 1.7 0.00 0.08 0.01 95 1029.4
20260831144524 46 34 0.9 1.7 0.00 0.08 0.01 96 1029.5
20260831144005 46 247 0.0 0.0 0.01 0.08 0.01 97 1029.3
20260831143504 45 237 0.0 0.0 0.01 0.08 0.01 97 1029.3
20260831143021 44 237 0.0 0.0 0.01 0.08 0.01 97 1029.3
20260831142504 44 237 0.0 0.0 0.01 0.08 0.01 97 1029.1
20260831142012 43 237 0.0 0.0 0.01 0.08 0.01 97 1029.1
20260831141513 43 237 0.0 0.0 0.01 0.08 0.01 97 1029.0
20260831141003 42 237 0.0 0.0 0.01 0.08 0.01 97 1028.9
20260831140511 42 237 0.0 0.0 0.01 0.08 0.01 97 1029.0
20260831140012 42 237 0.0 0.0 0.01 0.08 0.01 96 1028.8
20260831135503 41 238 0.0 0.0 0.01 0.08 0.01 96 1028.7
20260831135008 41 238 0.0 0.0 0.01 0.08 0.01 96 1028.6
20260831134508 41 238 0.0 0.0 0.01 0.08 0.01 96 1028.7
20260831134012 41 238 0.0 0.0 0.00 0.08 0.00 96 1028.6
20260831133509 41 236 0.0 0.9 0.00 0.08 0.00 96 1028.7
20260831133008 40 236 0.0 0.9 0.00 0.08 0.00 96 1028.7
20260831132509 40 236 0.0 0.9 0.00 0.08 0.00 96 1028.6
20260831132004 40 149 0.0 0.9 0.00 0.08 0.00 97 1028.6
20260831131504 40 149 0.0 1.7 0.00 0.08 0.00 97 1028.6
20260831131007 40 139 0.0 1.7 0.00 0.09 0.00 96 1028.5
20260831130503 39 221 0.0 1.7 0.00 0.09 0.00 96 1028.5
20260831130026 39 251 0.0 1.7 0.00 0.11 0.00 96 1028.4
20260831125506 38 260 0.0 0.9 0.00 0.13 0.00 96 1028.4
20260831125006 38 236 0.0 0.9 0.00 0.15 0.00 95 1028.4
20260831124522 39 236 0.0 0.9 0.00 0.17 0.00 95 1028.4
20260831124003 39 236 0.0 0.9 0.00 0.18 0.00 96 1028.4
20260831123515 39 236 0.0 0.9 0.00 0.18 0.00 95 1028.3
20260831123017 40 171 0.0 0.9 0.00 0.19 0.00 96 1028.2
20260831122503 40 171 0.0 1.7 0.00 0.19 0.00 96 1028.2
20260831122013 40 171 0.0 2.6 0.00 0.21 0.00 96 1028.1
20260831121514 40 160 0.9 2.6 0.00 0.24 0.00 96 1028.1
20260831121003 39 146 0.9 2.6 0.00 0.25 0.00 96 1028.0
20260831120511 39 151 0.0 1.7 0.00 0.25 0.00 96 1028.1
20260831120030 39 223 0.9 1.7 0.00 0.25 0.00 96 1028.1
20260831115512 39 240 0.0 1.7 0.00 0.25 0.00 96 1028.0
20260831115009 39 214 0.0 1.7 0.00 0.25 0.00 96 1028.0
20260831114523 39 214 0.9 1.7 0.00 0.25 0.00 96 1028.1
20260831114012 39 169 0.0 0.9 0.00 0.25 0.00 95 1028.1
20260831113508 39 167 0.0 0.9 0.00 0.25 0.00 95 1028.2
20260831113032 39 251 0.0 1.7 0.00 0.25 0.00 95 1028.2
20260831112510 39 252 0.0 1.7 0.00 0.25 0.00 95 1028.2
20260831112006 39 229 0.0 1.7 0.00 0.25 0.00 95 1028.2
20260831111530 39 237 0.0 0.9 0.00 0.25 0.00 96 1028.2
20260831111011 39 236 0.9 0.9 0.00 0.25 0.00 95 1028.2
20260831110509 39 247 0.0 0.9 0.00 0.25 0.00 95 1028.1
20260831110025 39 246 0.9 1.7 0.00 0.25 0.00 95 1028.1
20260831105508 40 136 0.0 1.7 0.00 0.25 0.00 95 1028.1
20260831105015 39 220 0.0 0.9 0.00 0.25 0.00 95 1028.1